Year,Month,Day,Hour,Minute,Value (Times are PST for temperature in C)
2009,07,11,00,00,16.10
2009,07,11,00,01,16.10
2009,07,11,00,02,16.10
2009,07,11,00,03,16.10
2009,07,11,00,04,16.10
2009,07,11,00,05,16.00
2009,07,11,00,06,16.00
2009,07,11,00,07,16.00
2009,07,11,00,08,16.00
2009,07,11,00,09,16.00
2009,07,11,00,10,16.00
2009,07,11,00,11,15.90
2009,07,11,00,12,15.90
2009,07,11,00,13,15.90
2009,07,11,00,14,15.90
2009,07,11,00,15,15.90
2009,07,11,00,16,15.90
2009,07,11,00,17,15.80
2009,07,11,00,18,15.80
2009,07,11,00,19,15.80
2009,07,11,00,20,15.80
2009,07,11,00,21,15.80
2009,07,11,00,22,15.80
2009,07,11,00,23,15.80
2009,07,11,00,24,15.80
2009,07,11,00,25,15.80
2009,07,11,00,26,15.80
2009,07,11,00,27,15.80
2009,07,11,00,28,15.70
2009,07,11,00,29,15.70
2009,07,11,00,30,15.70
2009,07,11,00,31,15.70
2009,07,11,00,32,15.70
2009,07,11,00,33,15.70
2009,07,11,00,34,15.70
2009,07,11,00,35,15.70
2009,07,11,00,36,15.70
2009,07,11,00,37,15.70
2009,07,11,00,38,15.70
2009,07,11,00,39,15.60
2009,07,11,00,40,15.60
2009,07,11,00,41,15.60
2009,07,11,00,42,15.60
2009,07,11,00,43,15.60
2009,07,11,00,44,15.50
2009,07,11,00,45,15.50
2009,07,11,00,46,15.40
2009,07,11,00,47,15.40
2009,07,11,00,48,15.40
2009,07,11,00,49,15.40
2009,07,11,00,50,15.30
2009,07,11,00,51,15.30
2009,07,11,00,52,15.30
2009,07,11,00,53,15.30
2009,07,11,00,54,15.20
2009,07,11,00,55,15.20
2009,07,11,00,56,15.20
2009,07,11,00,57,15.20
2009,07,11,00,58,15.20
2009,07,11,00,59,15.20
2009,07,11,01,00,15.10
2009,07,11,01,01,15.10
2009,07,11,01,02,15.10
2009,07,11,01,03,15.10
2009,07,11,01,04,15.10
2009,07,11,01,05,15.10
2009,07,11,01,06,15.10
2009,07,11,01,07,15.10
2009,07,11,01,08,15.00
2009,07,11,01,09,15.00
2009,07,11,01,10,15.00
2009,07,11,01,11,15.00
2009,07,11,01,12,15.00
2009,07,11,01,13,15.00
2009,07,11,01,14,15.00
2009,07,11,01,15,15.00
2009,07,11,01,16,15.00
2009,07,11,01,17,15.00
2009,07,11,01,18,15.00
2009,07,11,01,19,15.00
2009,07,11,01,20,15.00
2009,07,11,01,21,15.00
2009,07,11,01,22,14.90
2009,07,11,01,23,14.90
2009,07,11,01,24,14.90
2009,07,11,01,25,14.80
2009,07,11,01,26,14.80
2009,07,11,01,27,14.80
2009,07,11,01,28,14.80
2009,07,11,01,29,14.80
2009,07,11,01,30,14.80
2009,07,11,01,31,14.80
2009,07,11,01,32,14.80
2009,07,11,01,33,14.80
2009,07,11,01,34,14.70
2009,07,11,01,35,14.70
2009,07,11,01,36,14.70
2009,07,11,01,37,14.70
2009,07,11,01,38,14.70
2009,07,11,01,39,14.70
2009,07,11,01,40,14.70
2009,07,11,01,41,14.70
2009,07,11,01,42,14.70
2009,07,11,01,43,14.60
2009,07,11,01,44,14.60
2009,07,11,01,45,14.60
2009,07,11,01,46,14.60
2009,07,11,01,47,14.60
2009,07,11,01,48,14.60
2009,07,11,01,49,14.60
2009,07,11,01,50,14.60
2009,07,11,01,51,14.60
2009,07,11,01,52,14.60
2009,07,11,01,53,14.60
2009,07,11,01,54,14.60
2009,07,11,01,55,14.70
2009,07,11,01,56,14.70
2009,07,11,01,57,14.80
2009,07,11,01,58,14.80
2009,07,11,01,59,14.80
2009,07,11,02,00,14.90
2009,07,11,02,01,15.00
2009,07,11,02,02,15.00
2009,07,11,02,03,15.00
2009,07,11,02,04,15.00
2009,07,11,02,05,15.00
2009,07,11,02,06,15.00
2009,07,11,02,07,15.00
2009,07,11,02,08,15.00
2009,07,11,02,09,15.00
2009,07,11,02,10,15.00
2009,07,11,02,11,15.00
2009,07,11,02,12,15.00
2009,07,11,02,13,14.90
2009,07,11,02,14,14.90
2009,07,11,02,15,14.80
2009,07,11,02,16,14.80
2009,07,11,02,17,14.80
2009,07,11,02,18,14.80
2009,07,11,02,19,14.70
2009,07,11,02,20,14.70
2009,07,11,02,21,14.70
2009,07,11,02,22,14.70
2009,07,11,02,23,14.70
2009,07,11,02,24,14.70
2009,07,11,02,25,14.60
2009,07,11,02,26,14.60
2009,07,11,02,27,14.60
2009,07,11,02,28,14.60
2009,07,11,02,29,14.60
2009,07,11,02,30,14.60
2009,07,11,02,31,14.60
2009,07,11,02,32,14.60
2009,07,11,02,33,14.60
2009,07,11,02,34,14.60
2009,07,11,02,35,14.60
2009,07,11,02,36,14.50
2009,07,11,02,37,14.50
2009,07,11,02,38,14.50
2009,07,11,02,39,14.40
2009,07,11,02,40,14.40
2009,07,11,02,41,14.40
2009,07,11,02,42,14.40
2009,07,11,02,43,14.40
2009,07,11,02,44,14.40
2009,07,11,02,45,14.30
2009,07,11,02,46,14.30
2009,07,11,02,47,14.30
2009,07,11,02,48,14.30
2009,07,11,02,49,14.30
2009,07,11,02,50,14.30
2009,07,11,02,51,14.20
2009,07,11,02,52,14.20
2009,07,11,02,53,14.20
2009,07,11,02,54,14.20
2009,07,11,02,55,14.20
2009,07,11,02,56,14.10
2009,07,11,02,57,14.10
2009,07,11,02,58,14.10
2009,07,11,02,59,14.00
2009,07,11,03,00,14.00
2009,07,11,03,01,14.00
2009,07,11,03,02,13.90
2009,07,11,03,03,13.90
2009,07,11,03,04,13.90
2009,07,11,03,05,13.80
2009,07,11,03,06,13.80
2009,07,11,03,07,13.80
2009,07,11,03,08,13.70
2009,07,11,03,09,13.70
2009,07,11,03,10,13.70
2009,07,11,03,11,13.70
2009,07,11,03,12,13.60
2009,07,11,03,13,13.60
2009,07,11,03,14,13.60
2009,07,11,03,15,13.60
2009,07,11,03,16,13.60
2009,07,11,03,17,13.50
2009,07,11,03,18,13.50
2009,07,11,03,19,13.50
2009,07,11,03,20,13.40
2009,07,11,03,21,13.40
2009,07,11,03,22,13.40
2009,07,11,03,23,13.40
2009,07,11,03,24,13.40
2009,07,11,03,25,13.40
2009,07,11,03,26,13.40
2009,07,11,03,27,13.40
2009,07,11,03,28,13.30
2009,07,11,03,29,13.30
2009,07,11,03,30,13.30
2009,07,11,03,31,13.30
2009,07,11,03,32,13.30
2009,07,11,03,33,13.30
2009,07,11,03,34,13.30
2009,07,11,03,35,13.30
2009,07,11,03,36,13.30
2009,07,11,03,37,13.30
2009,07,11,03,38,13.30
2009,07,11,03,39,13.30
2009,07,11,03,40,13.30
2009,07,11,03,41,13.20
2009,07,11,03,42,13.20
2009,07,11,03,43,13.20
2009,07,11,03,44,13.20
2009,07,11,03,45,13.20
2009,07,11,03,46,13.20
2009,07,11,03,47,13.20
2009,07,11,03,48,13.20
2009,07,11,03,49,13.20
2009,07,11,03,50,13.10
2009,07,11,03,51,13.10
2009,07,11,03,52,13.10
2009,07,11,03,53,13.10
2009,07,11,03,54,13.10
2009,07,11,03,55,13.10
2009,07,11,03,56,13.10
2009,07,11,03,57,13.10
2009,07,11,03,58,13.10
2009,07,11,03,59,13.10
2009,07,11,04,00,13.10
2009,07,11,04,01,13.10
2009,07,11,04,02,13.10
2009,07,11,04,03,13.10
2009,07,11,04,04,13.10
2009,07,11,04,05,13.10
2009,07,11,04,06,13.10
2009,07,11,04,07,13.10
2009,07,11,04,08,13.10
2009,07,11,04,09,13.10
2009,07,11,04,10,13.00
2009,07,11,04,11,13.00
2009,07,11,04,12,13.00
2009,07,11,04,13,13.00
2009,07,11,04,14,13.00
2009,07,11,04,15,13.00
2009,07,11,04,16,13.00
2009,07,11,04,17,13.00
2009,07,11,04,18,12.90
2009,07,11,04,19,12.90
2009,07,11,04,20,12.90
2009,07,11,04,21,12.90
2009,07,11,04,22,12.90
2009,07,11,04,23,12.90
2009,07,11,04,24,12.90
2009,07,11,04,25,12.90
2009,07,11,04,26,12.90
2009,07,11,04,27,12.90
2009,07,11,04,28,12.90
2009,07,11,04,29,12.90
2009,07,11,04,30,12.90
2009,07,11,04,31,12.90
2009,07,11,04,32,12.80
2009,07,11,04,33,12.80
2009,07,11,04,34,12.80
2009,07,11,04,35,12.80
2009,07,11,04,36,12.80
2009,07,11,04,37,12.80
2009,07,11,04,38,12.80
2009,07,11,04,39,12.80
2009,07,11,04,40,12.80
2009,07,11,04,41,12.70
2009,07,11,04,42,12.70
2009,07,11,04,43,12.70
2009,07,11,04,44,12.70
2009,07,11,04,45,12.70
2009,07,11,04,46,12.70
2009,07,11,04,47,12.70
2009,07,11,04,48,12.70
2009,07,11,04,49,12.70
2009,07,11,04,50,12.70
2009,07,11,04,51,12.70
2009,07,11,04,52,12.70
2009,07,11,04,53,12.70
2009,07,11,04,54,12.70
2009,07,11,04,55,12.70
2009,07,11,04,56,12.70
2009,07,11,04,57,12.70
2009,07,11,04,58,12.60
2009,07,11,04,59,12.60
2009,07,11,05,00,12.60
2009,07,11,05,01,12.60
2009,07,11,05,02,12.60
2009,07,11,05,03,12.60
2009,07,11,05,04,12.60
2009,07,11,05,05,12.50
2009,07,11,05,06,12.50
2009,07,11,05,07,12.50
2009,07,11,05,08,12.50
2009,07,11,05,09,12.50
2009,07,11,05,10,12.40
2009,07,11,05,11,12.40
2009,07,11,05,12,12.40
2009,07,11,05,13,12.40
2009,07,11,05,14,12.40
2009,07,11,05,15,12.40
2009,07,11,05,16,12.40
2009,07,11,05,17,12.40
2009,07,11,05,18,12.40
2009,07,11,05,19,12.40
2009,07,11,05,20,12.40
2009,07,11,05,21,12.30
2009,07,11,05,22,12.30
2009,07,11,05,23,12.30
2009,07,11,05,24,12.30
2009,07,11,05,25,12.30
2009,07,11,05,26,12.30
2009,07,11,05,27,12.30
2009,07,11,05,28,12.30
2009,07,11,05,29,12.30
2009,07,11,05,30,12.30
2009,07,11,05,31,12.30
2009,07,11,05,32,12.30
2009,07,11,05,33,12.30
2009,07,11,05,34,12.30
2009,07,11,05,35,12.30
2009,07,11,05,36,12.30
2009,07,11,05,37,12.30
2009,07,11,05,38,12.30
2009,07,11,05,39,12.30
2009,07,11,05,40,12.30
2009,07,11,05,41,12.30
2009,07,11,05,42,12.30
2009,07,11,05,43,12.30
2009,07,11,05,44,12.30
2009,07,11,05,45,12.30
2009,07,11,05,46,12.30
2009,07,11,05,47,12.30
2009,07,11,05,48,12.30
2009,07,11,05,49,12.30
2009,07,11,05,50,12.30
2009,07,11,05,51,12.30
2009,07,11,05,52,12.30
2009,07,11,05,53,12.30
2009,07,11,05,54,12.30
2009,07,11,05,55,12.30
2009,07,11,05,56,12.30
2009,07,11,05,57,12.30
2009,07,11,05,58,12.30
2009,07,11,05,59,12.30
2009,07,11,06,00,12.30
2009,07,11,06,01,12.30
2009,07,11,06,02,12.30
2009,07,11,06,03,12.40
2009,07,11,06,04,12.40
2009,07,11,06,05,12.40
2009,07,11,06,06,12.40
2009,07,11,06,07,12.50
2009,07,11,06,08,12.50
2009,07,11,06,09,12.60
2009,07,11,06,10,12.60
2009,07,11,06,11,12.60
2009,07,11,06,12,12.60
2009,07,11,06,13,12.70
2009,07,11,06,14,12.70
2009,07,11,06,15,12.70
2009,07,11,06,16,12.70
2009,07,11,06,17,12.70
2009,07,11,06,18,12.70
2009,07,11,06,19,12.70
2009,07,11,06,20,12.80
2009,07,11,06,21,12.80
2009,07,11,06,22,12.80
2009,07,11,06,23,12.80
2009,07,11,06,24,12.80
2009,07,11,06,25,12.80
2009,07,11,06,26,12.80
2009,07,11,06,27,12.80
2009,07,11,06,28,12.80
2009,07,11,06,29,12.80
2009,07,11,06,30,12.80
2009,07,11,06,31,12.80
2009,07,11,06,32,12.90
2009,07,11,06,33,12.90
2009,07,11,06,34,12.90
2009,07,11,06,35,12.90
2009,07,11,06,36,12.90
2009,07,11,06,37,12.90
2009,07,11,06,38,13.00
2009,07,11,06,39,13.00
2009,07,11,06,40,13.10
2009,07,11,06,41,13.10
2009,07,11,06,42,13.10
2009,07,11,06,43,13.10
2009,07,11,06,44,13.20
2009,07,11,06,45,13.20
2009,07,11,06,46,13.30
2009,07,11,06,47,13.30
2009,07,11,06,48,13.40
2009,07,11,06,49,13.40
2009,07,11,06,50,13.40
2009,07,11,06,51,13.50
2009,07,11,06,52,13.60
2009,07,11,06,53,13.60
2009,07,11,06,54,13.60
2009,07,11,06,55,13.70
2009,07,11,06,56,13.70
2009,07,11,06,57,13.80
2009,07,11,06,58,13.80
2009,07,11,06,59,13.80
2009,07,11,07,00,13.80
2009,07,11,07,01,13.90
2009,07,11,07,02,13.90
2009,07,11,07,03,14.00
2009,07,11,07,04,14.10
2009,07,11,07,05,14.20
2009,07,11,07,06,14.20
2009,07,11,07,07,14.30
2009,07,11,07,08,14.40
2009,07,11,07,09,14.40
2009,07,11,07,10,14.50
2009,07,11,07,11,14.60
2009,07,11,07,12,14.60
2009,07,11,07,13,14.60
2009,07,11,07,14,14.70
2009,07,11,07,15,14.70
2009,07,11,07,16,14.70
2009,07,11,07,17,14.80
2009,07,11,07,18,14.80
2009,07,11,07,19,14.80
2009,07,11,07,20,14.80
2009,07,11,07,21,14.80
2009,07,11,07,22,14.90
2009,07,11,07,23,14.90
2009,07,11,07,24,15.00
2009,07,11,07,25,15.00
2009,07,11,07,26,15.00
2009,07,11,07,27,15.00
2009,07,11,07,28,15.00
2009,07,11,07,29,15.00
2009,07,11,07,30,15.00
2009,07,11,07,31,15.00
2009,07,11,07,32,15.00
2009,07,11,07,33,15.00
2009,07,11,07,34,15.10
2009,07,11,07,35,15.20
2009,07,11,07,36,15.30
2009,07,11,07,37,15.30
2009,07,11,07,38,15.30
2009,07,11,07,39,15.40
2009,07,11,07,40,15.40
2009,07,11,07,41,15.50
2009,07,11,07,42,15.60
2009,07,11,07,43,15.60
2009,07,11,07,44,15.70
2009,07,11,07,45,15.70
2009,07,11,07,46,15.80
2009,07,11,07,47,15.80
2009,07,11,07,48,15.90
2009,07,11,07,49,15.90
2009,07,11,07,50,16.00
2009,07,11,07,51,16.00
2009,07,11,07,52,16.10
2009,07,11,07,53,16.10
2009,07,11,07,54,16.10
2009,07,11,07,55,16.20
2009,07,11,07,56,16.30
2009,07,11,07,57,16.30
2009,07,11,07,58,16.40
2009,07,11,07,59,16.50
2009,07,11,08,00,16.60
2009,07,11,08,01,16.60
2009,07,11,08,02,16.70
2009,07,11,08,03,16.80
2009,07,11,08,04,16.90
2009,07,11,08,05,16.90
2009,07,11,08,06,17.00
2009,07,11,08,07,17.10
2009,07,11,08,08,17.20
2009,07,11,08,09,17.30
2009,07,11,08,10,17.40
2009,07,11,08,11,17.50
2009,07,11,08,12,17.60
2009,07,11,08,13,17.60
2009,07,11,08,14,17.70
2009,07,11,08,15,17.80
2009,07,11,08,16,17.80
2009,07,11,08,17,17.90
2009,07,11,08,18,17.90
2009,07,11,08,19,18.00
2009,07,11,08,20,18.00
2009,07,11,08,21,18.10
2009,07,11,08,22,18.10
2009,07,11,08,23,18.20
2009,07,11,08,24,18.20
2009,07,11,08,25,18.20
2009,07,11,08,26,18.30
2009,07,11,08,27,18.30
2009,07,11,08,28,18.40
2009,07,11,08,29,18.40
2009,07,11,08,30,18.50
2009,07,11,08,31,18.60
2009,07,11,08,32,18.70
2009,07,11,08,33,18.80
2009,07,11,08,34,18.90
2009,07,11,08,35,19.00
2009,07,11,08,36,19.10
2009,07,11,08,37,19.20
2009,07,11,08,38,19.20
2009,07,11,08,39,19.30
2009,07,11,08,40,19.30
2009,07,11,08,41,19.40
2009,07,11,08,42,19.50
2009,07,11,08,43,19.50
2009,07,11,08,44,19.60
2009,07,11,08,45,19.60
2009,07,11,08,46,19.70
2009,07,11,08,47,19.70
2009,07,11,08,48,19.70
2009,07,11,08,49,19.80
2009,07,11,08,50,19.90
2009,07,11,08,51,20.00
2009,07,11,08,52,20.00
2009,07,11,08,53,20.20
2009,07,11,08,54,20.30
2009,07,11,08,55,20.40
2009,07,11,08,56,20.50
2009,07,11,08,57,20.60
2009,07,11,08,58,20.70
2009,07,11,08,59,20.70
2009,07,11,09,00,20.80
2009,07,11,09,01,20.90
2009,07,11,09,02,20.90
2009,07,11,09,03,21.00
2009,07,11,09,04,21.00
2009,07,11,09,05,21.10
2009,07,11,09,06,21.20
2009,07,11,09,07,21.20
2009,07,11,09,08,21.30
2009,07,11,09,09,21.40
2009,07,11,09,10,21.40
2009,07,11,09,11,21.40
2009,07,11,09,12,21.30
2009,07,11,09,13,21.20
2009,07,11,09,14,21.20
2009,07,11,09,15,21.10
2009,07,11,09,16,21.10
2009,07,11,09,17,21.00
2009,07,11,09,18,20.90
2009,07,11,09,19,20.90
2009,07,11,09,20,20.90
2009,07,11,09,21,21.00
2009,07,11,09,22,21.10
2009,07,11,09,23,21.10
2009,07,11,09,24,21.20
2009,07,11,09,25,21.30
2009,07,11,09,26,21.40
2009,07,11,09,27,21.40
2009,07,11,09,28,21.50
2009,07,11,09,29,21.60
2009,07,11,09,30,21.70
2009,07,11,09,31,21.70
2009,07,11,09,32,21.70
2009,07,11,09,33,21.70
2009,07,11,09,34,21.70
2009,07,11,09,35,21.80
2009,07,11,09,36,21.80
2009,07,11,09,37,21.90
2009,07,11,09,38,22.00
2009,07,11,09,39,22.10
2009,07,11,09,40,22.20
2009,07,11,09,41,22.30
2009,07,11,09,42,22.30
2009,07,11,09,43,22.30
2009,07,11,09,44,22.40
2009,07,11,09,45,22.40
2009,07,11,09,46,22.50
2009,07,11,09,47,22.50
2009,07,11,09,48,22.50
2009,07,11,09,49,22.60
2009,07,11,09,50,22.60
2009,07,11,09,51,22.70
2009,07,11,09,52,22.80
2009,07,11,09,53,22.90
2009,07,11,09,54,22.90
2009,07,11,09,55,23.00
2009,07,11,09,56,23.10
2009,07,11,09,57,23.30
2009,07,11,09,58,23.40
2009,07,11,09,59,23.40
2009,07,11,10,00,23.50
2009,07,11,10,01,23.60
2009,07,11,10,02,23.60
2009,07,11,10,03,23.70
2009,07,11,10,04,23.70
2009,07,11,10,05,23.70
2009,07,11,10,06,23.80
2009,07,11,10,07,23.80
2009,07,11,10,08,23.80
2009,07,11,10,09,23.90
2009,07,11,10,10,23.90
2009,07,11,10,11,23.90
2009,07,11,10,12,24.00
2009,07,11,10,13,24.00
2009,07,11,10,14,24.10
2009,07,11,10,15,24.10
2009,07,11,10,16,24.10
2009,07,11,10,17,24.20
2009,07,11,10,18,24.20
2009,07,11,10,19,24.20
2009,07,11,10,20,24.20
2009,07,11,10,21,24.20
2009,07,11,10,22,24.30
2009,07,11,10,23,24.30
2009,07,11,10,24,24.40
2009,07,11,10,25,24.50
2009,07,11,10,26,24.50
2009,07,11,10,27,24.60
2009,07,11,10,28,24.60
2009,07,11,10,29,24.60
2009,07,11,10,30,24.60
2009,07,11,10,31,24.50
2009,07,11,10,32,24.50
2009,07,11,10,33,24.50
2009,07,11,10,34,24.60
2009,07,11,10,35,24.70
2009,07,11,10,36,24.80
2009,07,11,10,37,24.90
2009,07,11,10,38,25.00
2009,07,11,10,39,25.10
2009,07,11,10,40,25.20
2009,07,11,10,41,25.20
2009,07,11,10,42,25.30
2009,07,11,10,43,25.40
2009,07,11,10,44,25.40
2009,07,11,10,45,25.50
2009,07,11,10,46,25.50
2009,07,11,10,47,25.60
2009,07,11,10,48,25.80
2009,07,11,10,49,25.80
2009,07,11,10,50,25.90
2009,07,11,10,51,25.90
2009,07,11,10,52,25.90
2009,07,11,10,53,25.90
2009,07,11,10,54,25.90
2009,07,11,10,55,25.80
2009,07,11,10,56,25.80
2009,07,11,10,57,25.80
2009,07,11,10,58,25.80
2009,07,11,10,59,25.80
2009,07,11,11,00,25.90
2009,07,11,11,01,25.90
2009,07,11,11,02,25.90
2009,07,11,11,03,25.90
2009,07,11,11,04,25.90
2009,07,11,11,05,25.90
2009,07,11,11,06,25.80
2009,07,11,11,07,25.70
2009,07,11,11,08,25.70
2009,07,11,11,09,25.60
2009,07,11,11,10,25.60
2009,07,11,11,11,25.60
2009,07,11,11,12,25.60
2009,07,11,11,13,25.60
2009,07,11,11,14,25.60
2009,07,11,11,15,25.70
2009,07,11,11,16,25.70
2009,07,11,11,17,25.80
2009,07,11,11,18,25.90
2009,07,11,11,19,25.90
2009,07,11,11,20,25.90
2009,07,11,11,21,26.00
2009,07,11,11,22,26.00
2009,07,11,11,23,26.10
2009,07,11,11,24,26.10
2009,07,11,11,25,26.10
2009,07,11,11,26,26.10
2009,07,11,11,27,26.10
2009,07,11,11,28,26.20
2009,07,11,11,29,26.20
2009,07,11,11,30,26.10
2009,07,11,11,31,26.10
2009,07,11,11,32,26.10
2009,07,11,11,33,26.00
2009,07,11,11,34,25.90
2009,07,11,11,35,25.90
2009,07,11,11,36,25.90
2009,07,11,11,37,25.90
2009,07,11,11,38,25.90
2009,07,11,11,39,25.90
2009,07,11,11,40,26.00
2009,07,11,11,41,26.00
2009,07,11,11,42,26.10
2009,07,11,11,43,26.10
2009,07,11,11,44,25.90
2009,07,11,11,45,25.60
2009,07,11,11,46,25.20
2009,07,11,11,47,24.80
2009,07,11,11,48,24.60
2009,07,11,11,49,24.50
2009,07,11,11,50,24.40
2009,07,11,11,51,24.20
2009,07,11,11,52,24.00
2009,07,11,11,53,23.90
2009,07,11,11,54,23.80
2009,07,11,11,55,23.80
2009,07,11,11,56,23.80
2009,07,11,11,57,23.80
2009,07,11,11,58,23.80
2009,07,11,11,59,23.70
2009,07,11,12,00,23.70
2009,07,11,12,01,23.60
2009,07,11,12,02,23.50
2009,07,11,12,03,23.40
2009,07,11,12,04,23.30
2009,07,11,12,05,23.20
2009,07,11,12,06,23.10
2009,07,11,12,07,23.00
2009,07,11,12,08,22.90
2009,07,11,12,09,22.90
2009,07,11,12,10,22.70
2009,07,11,12,11,22.70
2009,07,11,12,12,22.60
2009,07,11,12,13,22.60
2009,07,11,12,14,22.60
2009,07,11,12,15,22.60
2009,07,11,12,16,22.50
2009,07,11,12,17,22.50
2009,07,11,12,18,22.40
2009,07,11,12,19,22.40
2009,07,11,12,20,22.50
2009,07,11,12,21,22.50
2009,07,11,12,22,22.50
2009,07,11,12,23,22.50
2009,07,11,12,24,22.60
2009,07,11,12,25,22.70
2009,07,11,12,26,22.80
2009,07,11,12,27,22.80
2009,07,11,12,28,22.80
2009,07,11,12,29,22.90
2009,07,11,12,30,23.00
2009,07,11,12,31,23.00
2009,07,11,12,32,23.10
2009,07,11,12,33,23.20
2009,07,11,12,34,23.40
2009,07,11,12,35,23.50
2009,07,11,12,36,23.70
2009,07,11,12,37,23.80
2009,07,11,12,38,23.90
2009,07,11,12,39,24.10
2009,07,11,12,40,24.20
2009,07,11,12,41,24.30
2009,07,11,12,42,24.30
2009,07,11,12,43,24.40
2009,07,11,12,44,24.40
2009,07,11,12,45,24.40
2009,07,11,12,46,24.50
2009,07,11,12,47,24.60
2009,07,11,12,48,24.70
2009,07,11,12,49,24.70
2009,07,11,12,50,24.80
2009,07,11,12,51,24.80
2009,07,11,12,52,24.80
2009,07,11,12,53,25.00
2009,07,11,12,54,25.10
2009,07,11,12,55,25.20
2009,07,11,12,56,25.20
2009,07,11,12,57,25.20
2009,07,11,12,58,25.20
2009,07,11,12,59,25.30
2009,07,11,13,00,25.40
2009,07,11,13,01,25.60
2009,07,11,13,02,25.80
2009,07,11,13,03,25.90
2009,07,11,13,04,26.00
2009,07,11,13,05,26.20
2009,07,11,13,06,26.30
2009,07,11,13,07,26.30
2009,07,11,13,08,26.30
2009,07,11,13,09,26.40
2009,07,11,13,10,26.50
2009,07,11,13,11,26.60
2009,07,11,13,12,26.50
2009,07,11,13,13,26.60
2009,07,11,13,14,26.60
2009,07,11,13,15,26.60
2009,07,11,13,16,26.50
2009,07,11,13,17,26.50
2009,07,11,13,18,26.60
2009,07,11,13,19,26.70
2009,07,11,13,20,26.80
2009,07,11,13,21,26.80
2009,07,11,13,22,26.90
2009,07,11,13,23,27.00
2009,07,11,13,24,27.00
2009,07,11,13,25,27.00
2009,07,11,13,26,27.00
2009,07,11,13,27,27.00
2009,07,11,13,28,26.80
2009,07,11,13,29,26.70
2009,07,11,13,30,26.60
2009,07,11,13,31,26.50
2009,07,11,13,32,26.40
2009,07,11,13,33,26.30
2009,07,11,13,34,26.10
2009,07,11,13,35,26.00
2009,07,11,13,36,25.90
2009,07,11,13,37,25.90
2009,07,11,13,38,25.90
2009,07,11,13,39,25.90
2009,07,11,13,40,25.90
2009,07,11,13,41,25.90
2009,07,11,13,42,25.90
2009,07,11,13,43,26.00
2009,07,11,13,44,26.10
2009,07,11,13,45,26.30
2009,07,11,13,46,26.50
2009,07,11,13,47,26.60
2009,07,11,13,48,26.60
2009,07,11,13,49,26.70
2009,07,11,13,50,26.80
2009,07,11,13,51,26.80
2009,07,11,13,52,26.80
2009,07,11,13,53,26.70
2009,07,11,13,54,26.70
2009,07,11,13,55,26.80
2009,07,11,13,56,26.90
2009,07,11,13,57,27.00
2009,07,11,13,58,27.10
2009,07,11,13,59,27.10
2009,07,11,14,00,27.10
2009,07,11,14,01,27.10
2009,07,11,14,02,27.10
2009,07,11,14,03,27.10
2009,07,11,14,04,27.20
2009,07,11,14,05,27.20
2009,07,11,14,06,27.20
2009,07,11,14,07,27.20
2009,07,11,14,08,27.20
2009,07,11,14,09,27.20
2009,07,11,14,10,27.20
2009,07,11,14,11,27.20
2009,07,11,14,12,27.20
2009,07,11,14,13,27.20
2009,07,11,14,14,27.10
2009,07,11,14,15,27.00
2009,07,11,14,16,26.90
2009,07,11,14,17,26.90
2009,07,11,14,18,26.90
2009,07,11,14,19,26.90
2009,07,11,14,20,26.90
2009,07,11,14,21,26.90
2009,07,11,14,22,26.90
2009,07,11,14,23,26.90
2009,07,11,14,24,26.90
2009,07,11,14,25,27.00
2009,07,11,14,26,27.10
2009,07,11,14,27,27.10
2009,07,11,14,28,27.00
2009,07,11,14,29,26.90
2009,07,11,14,30,26.90
2009,07,11,14,31,26.80
2009,07,11,14,32,26.60
2009,07,11,14,33,26.60
2009,07,11,14,34,26.70
2009,07,11,14,35,26.70
2009,07,11,14,36,26.80
2009,07,11,14,37,26.80
2009,07,11,14,38,26.90
2009,07,11,14,39,27.00
2009,07,11,14,40,27.10
2009,07,11,14,41,27.20
2009,07,11,14,42,27.30
2009,07,11,14,43,27.40
2009,07,11,14,44,27.30
2009,07,11,14,45,27.30
2009,07,11,14,46,27.30
2009,07,11,14,47,27.30
2009,07,11,14,48,27.30
2009,07,11,14,49,27.30
2009,07,11,14,50,27.40
2009,07,11,14,51,27.50
2009,07,11,14,52,27.60
2009,07,11,14,53,27.60
2009,07,11,14,54,27.70
2009,07,11,14,55,27.60
2009,07,11,14,56,27.60
2009,07,11,14,57,27.60
2009,07,11,14,58,27.70
2009,07,11,14,59,27.70
2009,07,11,15,00,27.70
2009,07,11,15,01,27.70
2009,07,11,15,02,27.60
2009,07,11,15,03,27.60
2009,07,11,15,04,27.60
2009,07,11,15,05,27.60
2009,07,11,15,06,27.50
2009,07,11,15,07,27.50
2009,07,11,15,08,27.40
2009,07,11,15,09,27.50
2009,07,11,15,10,27.50
2009,07,11,15,11,27.50
2009,07,11,15,12,27.60
2009,07,11,15,13,27.60
2009,07,11,15,14,27.60
2009,07,11,15,15,27.60
2009,07,11,15,16,27.60
2009,07,11,15,17,27.60
2009,07,11,15,18,27.60
2009,07,11,15,19,27.60
2009,07,11,15,20,27.70
2009,07,11,15,21,27.70
2009,07,11,15,22,27.80
2009,07,11,15,23,27.80
2009,07,11,15,24,27.90
2009,07,11,15,25,27.90
2009,07,11,15,26,27.90
2009,07,11,15,27,27.90
2009,07,11,15,28,27.90
2009,07,11,15,29,27.90
2009,07,11,15,30,27.90
2009,07,11,15,31,27.90
2009,07,11,15,32,27.90
2009,07,11,15,33,28.00
2009,07,11,15,34,28.00
2009,07,11,15,35,28.00
2009,07,11,15,36,28.00
2009,07,11,15,37,27.90
2009,07,11,15,38,27.90
2009,07,11,15,39,27.90
2009,07,11,15,40,27.80
2009,07,11,15,41,27.70
2009,07,11,15,42,27.70
2009,07,11,15,43,27.70
2009,07,11,15,44,27.70
2009,07,11,15,45,27.70
2009,07,11,15,46,27.70
2009,07,11,15,47,27.70
2009,07,11,15,48,27.70
2009,07,11,15,49,27.70
2009,07,11,15,50,27.80
2009,07,11,15,51,27.90
2009,07,11,15,52,27.90
2009,07,11,15,53,28.00
2009,07,11,15,54,28.10
2009,07,11,15,55,28.10
2009,07,11,15,56,28.10
2009,07,11,15,57,28.10
2009,07,11,15,58,28.20
2009,07,11,15,59,28.20
2009,07,11,16,00,28.30
2009,07,11,16,01,28.30
2009,07,11,16,02,28.30
2009,07,11,16,03,28.40
2009,07,11,16,04,28.50
2009,07,11,16,05,28.50
2009,07,11,16,06,28.50
2009,07,11,16,07,28.50
2009,07,11,16,08,28.60
2009,07,11,16,09,28.60
2009,07,11,16,10,28.60
2009,07,11,16,11,28.60
2009,07,11,16,12,28.70
2009,07,11,16,13,28.80
2009,07,11,16,14,28.80
2009,07,11,16,15,28.90
2009,07,11,16,16,28.90
2009,07,11,16,17,29.00
2009,07,11,16,18,29.00
2009,07,11,16,19,29.10
2009,07,11,16,20,29.10
2009,07,11,16,21,29.30
2009,07,11,16,22,29.40
2009,07,11,16,23,29.60
2009,07,11,16,24,29.70
2009,07,11,16,25,29.80
2009,07,11,16,26,29.70
2009,07,11,16,27,29.70
2009,07,11,16,28,29.60
2009,07,11,16,29,29.60
2009,07,11,16,30,29.60
2009,07,11,16,31,29.50
2009,07,11,16,32,29.50
2009,07,11,16,33,29.50
2009,07,11,16,34,29.60
2009,07,11,16,35,29.60
2009,07,11,16,36,29.50
2009,07,11,16,37,29.50
2009,07,11,16,38,29.40
2009,07,11,16,39,29.30
2009,07,11,16,40,29.30
2009,07,11,16,41,29.40
2009,07,11,16,42,29.40
2009,07,11,16,43,29.50
2009,07,11,16,44,29.50
2009,07,11,16,45,29.50
2009,07,11,16,46,29.60
2009,07,11,16,47,29.50
2009,07,11,16,48,29.50
2009,07,11,16,49,29.30
2009,07,11,16,50,29.20
2009,07,11,16,51,29.10
2009,07,11,16,52,29.00
2009,07,11,16,53,28.90
2009,07,11,16,54,28.90
2009,07,11,16,55,28.80
2009,07,11,16,56,28.80
2009,07,11,16,57,28.80
2009,07,11,16,58,28.90
2009,07,11,16,59,28.90
2009,07,11,17,00,28.90
2009,07,11,17,01,28.80
2009,07,11,17,02,28.80
2009,07,11,17,03,28.80
2009,07,11,17,04,28.70
2009,07,11,17,05,28.70
2009,07,11,17,06,28.80
2009,07,11,17,07,28.80
2009,07,11,17,08,28.80
2009,07,11,17,09,28.90
2009,07,11,17,10,28.90
2009,07,11,17,11,28.90
2009,07,11,17,12,29.00
2009,07,11,17,13,28.90
2009,07,11,17,14,28.90
2009,07,11,17,15,28.90
2009,07,11,17,16,28.90
2009,07,11,17,17,28.90
2009,07,11,17,18,28.90
2009,07,11,17,19,28.90